Meteo Giornale » Osservazioni meteo Italia » Bologna-Borgo Panigale

ore: 19:50 - Osservazioni Meteo Bologna-Borgo Panigale
Lat. 44° 32' N Lon. 11° 18' E Alt. 36 metri s.l.m.

poco_nuvoloso Europe/Rome

26 °C

Poco Nuvoloso

Temp. 24 Ore

21 °C

28 °C

Nord

3.7 Km/h

Dew point 20 °C

Umidità 69 %

Visibilità  10 Km

Il sole sorge alle ore 06:24

Il sole tramonta alle ore 20:10

Data e Ora Cielo e Fenomeni T °C DP °C Um. % Pres. hPa Vis. km Vento km/h
Oggi h: 19:50 poco_nuvoloso Poco Nuvoloso 26 20 69 1019 10 N 3.7
Oggi h: 19:20 poco_nuvoloso Poco Nuvoloso 26 20 69 1019 10 N 3.7
Oggi h: 18:50 poco_nuvoloso Poco Nuvoloso 26 20 69 1020 10 E 9.3
Oggi h: 18:20 nuvoloso Nuvoloso 27 21 69 1019 10 N 5.5
Oggi h: 17:50 coperto_pioggia Pioggia Debole 26 21 73 1019 10 N 5.5
Oggi h: 17:20 coperto_pioggia Pioggia Debole 27 19 61 1019 10 N 5.5
Oggi h: 16:50 poco_nuvoloso Poco Nuvoloso 28 19 58 1019 10 N/NE 9.3
Oggi h: 16:20 nuvoloso Nuvoloso 27 19 61 1019 10 N/NE 7.4
Oggi h: 15:50 nuvoloso Nuvoloso 27 20 65 1019 10 N/NE 7.4
Oggi h: 15:20 nuvoloso Nuvoloso 27 20 65 1020 10 N/NO 9.3
Oggi h: 14:50 molto_nuvoloso Molto Nuvoloso 27 20 65 1020 10 N 9.3
Oggi h: 14:20 molto_nuvoloso Molto Nuvoloso 27 20 65 1020 10 O/NO 9.3
Oggi h: 13:50 molto_nuvoloso Molto Nuvoloso 27 20 65 1020 10 NO 7.4
Oggi h: 13:20 nuvoloso Nuvoloso 27 20 65 1021 10 N/NO 7.4
Oggi h: 12:50 nuvoloso Nuvoloso 26 19 65 1021 10 N 5.5
Oggi h: 12:20 poco_nuvoloso Poco Nuvoloso 26 19 65 1021 10 N 5.5
Oggi h: 11:50 poco_nuvoloso Poco Nuvoloso 24 19 73 1021 10 N 5.5
Oggi h: 11:20 poco_nuvoloso Poco Nuvoloso 24 19 73 1021 10 N 5.5
Oggi h: 10:50 nuvoloso Nuvoloso 24 19 73 1021 10 N 3.7
Oggi h: 10:20 molto_nuvoloso Molto Nuvoloso 24 19 73 1021 10 N 3.7
Oggi h: 09:50 molto_nuvoloso Molto Nuvoloso 23 19 78 1021 10 N 5.5
Oggi h: 09:20 molto_nuvoloso Molto Nuvoloso 23 19 78 1021 10 N 5.5
Oggi h: 08:50 molto_nuvoloso Molto Nuvoloso 22 18 78 1021 10 NE 7.4
Oggi h: 08:20 molto_nuvoloso Molto Nuvoloso 22 18 78 1021 10 N 5.5
Oggi h: 07:50 nuvoloso Nuvoloso 22 18 78 1020 10 N 3.7
Oggi h: 07:20 nuvoloso Nuvoloso 21 19 88 1020 10 N 3.7
Oggi h: 06:50 poco_nuvoloso Poco Nuvoloso 21 20 94 1020 10 N 3.7
Oggi h: 06:20 poco_nuvoloso Poco Nuvoloso 21 20 94 1020 10 N 5.5
Oggi h: 05:50 poco_nuvoloso Poco Nuvoloso 21 20 94 1019 10 N 5.5
Oggi h: 05:20 nuvoloso Nuvoloso 21 20 94 1019 10 N 1.8
Oggi h: 04:50 nuvoloso Nuvoloso 21 20 94 1019 10 N 1.8
Oggi h: 04:20 sereno Sereno 21 20 94 1019 10 N 3.7
Oggi h: 03:50 sereno Sereno 21 20 94 1019 10 N 3.7
Oggi h: 03:20 sereno Sereno 22 20 88 1019 10 N 3.7
Oggi h: 02:50 sereno Sereno 22 20 88 1019 10 N 1.8
Oggi h: 02:20 sereno Sereno 22 20 88 1019 10 N 1.8
Oggi h: 01:50 sereno Sereno 23 20 83 1019 10 N 1.8
Oggi h: 01:20 poco_nuvoloso Poco Nuvoloso 22 20 88 1019 10 N 1.8
Oggi h: 00:20 poco_nuvoloso Poco Nuvoloso 22 20 88 1019 10 N 5.5
Ieri h: 23:50 sereno Sereno 22 20 88 1019 10 N 3.7
Ieri h: 23:20 sereno Sereno 21 20 94 1019 10 N 1.8
Ieri h: 22:50 sereno Sereno 22 20 88 1019 10 N 1.8
Ieri h: 22:20 sereno Sereno 22 20 88 1019 10 N 3.7
Ieri h: 21:50 poco_nuvoloso Poco Nuvoloso 22 20 88 1018 10 N 3.7
Ieri h: 21:20 poco_nuvoloso Poco Nuvoloso 23 19 78 1018 10 N 1.8
Ieri h: 20:50 nuvoloso Nuvoloso 22 20 88 1017 10 S 7.4